Preview of NWS' New Version of Forecast
This preview is not operational and should not be used for support decisions.

Regional Weather Roundup (RWR)

Issued by Philadelphia/Mt Holly (PHI)

                            
000
ASUS41 KPHI 201412
RWRPHI

REGIONAL WEATHER ROUNDUP
NATIONAL WEATHER SERVICE MOUNT HOLLY NJ
1000 AM EDT SAT APR 20 2019

NOTE:  "FAIR" INDICATES FEW OR NO CLOUDS BELOW 12,000 FEET WITH NO
SIGNIFICANT WEATHER AND/OR OBSTRUCTIONS TO VISIBILITY.

 * = STATION DOES NOT REPORT PRECIPITATION (E.G. RAIN, SNOW, ETC.) 
        OR FOG.

NJZ015>026-201500-
SOUTHERN NEW JERSEY
  
CITY           SKY/WX    TMP DP  RH WIND       PRES   REMARKS
POMONA         PTSUNNY   63  62  97 S14G30    29.73R                  
WILDWOOD*      PTSUNNY   60  59  96 MISG      29.71R                  
MILLVILLE      CLOUDY    64  62  93 S13G29    29.69R                  
WRIGHTSTOWN    LGT RAIN  64  64 100 S13G23    29.68R                  
MOUNT HOLLY    CLOUDY    66  63  90 S12G21    29.69R                  
TRENTON        LGT RAIN  66  64  93 S16G23    29.69R                  

$$
NJZ001>014-201500-
NORTHERN NEW JERSEY
  
CITY           SKY/WX    TMP DP  RH WIND       PRES   REMARKS
SUSSEX         LGT RAIN  69  65  86 S16G23    29.69R                  
ANDOVER*         N/A     67  62  84 S14G29    29.68S                  
MORRISTOWN     CLOUDY    68  66  94 SW15G26   29.72R                  
NEWARK         LGT RAIN  66  64  93 SE7       29.73S                  
TETERBORO      LGT RAIN  65  62  90 S17G24    29.72S FOG              
CALDWELL       CLOUDY    68  66  93 S14G21    29.72R                  
SOMERVILLE     LGT RAIN  68  64  87 S13G26    29.68R                  
ALLAIRE*       LGT RAIN  62  61  96 S16G25    29.75S                  
TOMS RIVER*    LGT RAIN  65  64  97 SE23      29.73S                  

$$
PAZ043-044-047-054-055-060>062-066>071-201500-
EASTERN PENNSYLVANIA
  
CITY           SKY/WX    TMP DP  RH WIND       PRES   REMARKS
PHILADELPHIA   LGT RAIN  67  63  87 SE15      29.66F                  
NORTH PHILA    CLOUDY    68  63  84 S6G16     29.69R                  
BLUE BELL*     CLOUDY    64  64 100 S13G24    29.68R                  
DOYLESTOWN     LGT RAIN  67  62  84 S10G22    29.67R                  
QUAKERTOWN*      N/A     66  66 100 S14G24    29.67R FOG              
PERKASIE*      CLOUDY    64  64 100 S10G25    29.68R FOG              
POTTSTOWN      CLOUDY    66  64  93 S10G20    29.67R                  
LANCASTER      CLOUDY    68  65  90 SE9       29.60F                  
COATESVILLE    CLOUDY    64  64 100 SE9       29.65S                  
WEST CHESTER   CLOUDY    66  63  88 SE10G18   29.65F                  
READING        CLOUDY    66  66 100 SE6       29.62S                  
ALLENTOWN      HVY RAIN  67  63  87 S12       29.64F FOG              
QN CITY/ALNTWN HVY RAIN  64  64 100 SW3       29.66R VSB 3/4          
MOUNT POCONO   HVY RAIN  60  60 100 SE5       29.68R FOG              
HAZLETON       CLOUDY    63  61  94 E7        29.68R                  
LEHIGHTON      RAIN      64  63  94 CALM      29.65S                  
WILKES BARRE   LGT RAIN  66  63  90 SE3       29.63F                  

$$
DEZALL-MDZ008-012-015-019-020-201500-
DELAWARE AND EASTERN MARYLAND
  
CITY           SKY/WX    TMP DP  RH WIND       PRES   REMARKS
WILMINGTON     PTSUNNY   67  65  93 SE22G28   29.65R                  
DOVER          CLOUDY    68  66  96 SE17G23   29.65R                  
CHESWOLD       CLOUDY    68  66  94 SE8G15    29.65R                  
GEORGETOWN     CLOUDY    66  65  96 S16       29.67R                  
EASTON         CLOUDY    68  63  83 S15G23    29.69R                  
STEVENSVILLE   CLOUDY    66  66 100 S14G21    29.63R                  
PATUXENT       CLOUDY    67  63  87 SW12      29.65R                  
OCEAN CITY     FOG       60  59  96 S10G18    29.71R VSB 3/4          
WALLOPS ISLAND CLOUDY    61  60  97 S17       29.71R FOG              
CAMBRIDGE      CLOUDY    66  63  88 S14       29.66R                  
SALISBURY      CLOUDY    66  65  96 S9G21     29.67R                  

$$
PAZ001-021-NYZ056-072-MDZ011-DCZ001-201500-
OTHER NEARBY LOCATIONS
  
CITY           SKY/WX    TMP DP  RH WIND       PRES   REMARKS
HARRISBURG     CLOUDY    66  62  87 SE8       29.57S                  
STATE COLLEGE  PTSUNNY   66  61  82 E9        29.55F                  
WILLIAMSPORT   FAIR      70  60  70 E13       29.57S                  
BINGHAMTON     FAIR      63  59  87 S9        29.64S                  
NEW YORK CITY  LGT RAIN  62  62 100 S6        29.77S                  
BALTIMORE      CLOUDY    67  64  90 S8        29.60R                  
WASHINGTON DC  PTSUNNY   69  59  70 S13       29.61R                  

$$